[[{"header":{"parameterUnit":"m.s-1","parameterCategory":1,"la1":30.2991,"la2":30.254,"lo1":-89.0895,"lo2":-89.0444,"dy":0.0017,"dx":0.0017,"nx":28,"ny":28,"refTime":"2024-04-05T03:00:00:Z","depth":0,"parameterNumber":2,"parameterNumberName":"U-component_of_WINDS"},"data":[0,0,0,0,0,0,0,0,0,0,0,0,0,0,0,0,0,0,0,0,0,0,0,0,0,0,0,0,0,0,0,0,0,0,0,0,0,0,0,0,0,0,0,0,0,0,0,0,0,0,0,0,0,0,0,0,0,0,-0.3298,-0.3298,0,-0.3301,-0.3301,-0.3301,-0.3314,-0.3314,-0.3314,-0.3315,-0.3317,-0.3317,-0.3317,0,0,0,0,0,0,0,0,0,0,0,0,0,-0.33,-0.33,-0.3298,-0.3298,-0.3298,-0.3301,-0.3301,-0.3301,-0.3314,-0.3314,-0.3314,-0.3315,-0.3317,-0.3317,-0.3317,0,0,0,0,0,0,0,0,0,0,0,0,0,-0.33,-0.33,-0.3298,-0.3304,-0.3305,-0.3301,-0.3301,-0.3301,-0.3314,-0.3314,-0.3315,-0.3315,-0.3317,-0.3317,-0.3317,-0.3306,0,0,-0.3316,-0.3316,0,0,0,0,0,0,0,0,-0.33,-0.33,-0.3303,-0.3304,-0.3305,-0.3307,-0.3303,-0.3303,-0.3314,-0.331,-0.3315,-0.3315,-0.3314,-0.3314,-0.3313,-0.3306,-0.3306,-0.3316,-0.3316,-0.3315,-0.3315,0,0,0,0,0,0,0,-0.33,-0.33,-0.3299,-0.3303,-0.3304,-0.3306,-0.3307,-0.3303,-0.3309,-0.3311,-0.3312,-0.3312,-0.3314,-0.3313,-0.3313,-0.3306,-0.3316,-0.3315,-0.3315,-0.3315,-0.3287,-0.3287,0,0,0,0,0,0,-0.33,-0.33,-0.3299,-0.3299,-0.3304,-0.3306,-0.3307,-0.3306,-0.3309,-0.331,-0.3312,-0.3312,-0.3314,-0.3314,-0.3313,-0.3299,-0.3315,-0.3315,-0.3315,-0.3288,-0.3287,-0.3286,0,0,0,0,0,0,-0.33,-0.3299,-0.3299,-0.33,-0.33,-0.3306,-0.3305,-0.3306,-0.3305,-0.331,-0.3311,-0.331,-0.3314,-0.3314,-0.3307,-0.3299,-0.3315,-0.3315,-0.3288,-0.3287,-0.3287,-0.3271,0,0,0,0,0,0,-0.33,-0.3299,-0.3296,-0.33,-0.33,-0.3293,-0.3304,-0.3306,-0.3305,-0.3306,-0.3309,-0.331,-0.3314,-0.3307,-0.3307,-0.3299,-0.3314,-0.3289,-0.3288,-0.3287,-0.3272,-0.327,-0.3268,0,0,0,0,0,-0.33,-0.3292,-0.3296,-0.3295,-0.3296,-0.3293,-0.3292,-0.3298,-0.3304,-0.33,-0.3303,-0.331,-0.33,-0.3307,-0.3306,-0.3298,-0.329,-0.3288,-0.3287,-0.3273,-0.327,-0.3268,0,0,0,0,0,0,-0.3287,-0.3293,-0.3297,-0.329,-0.3291,-0.3295,-0.329,-0.3295,-0.3294,-0.3295,-0.3302,-0.3303,-0.3294,-0.3296,-0.3303,-0.3286,-0.3296,-0.3294,-0.3286,-0.3283,-0.3281,-0.328,-0.3314,0,0,0,0,0,-0.3284,-0.3281,-0.3286,-0.3279,-0.3279,-0.3285,-0.3283,-0.3288,-0.3288,-0.3289,-0.3291,-0.3291,-0.3288,-0.3286,-0.3283,-0.3273,-0.3272,-0.3267,-0.3264,-0.3262,-0.3261,-0.3253,-0.325,-0.3282,-0.3282,-0.3282,0,0,-0.3277,-0.3279,-0.3277,-0.3277,-0.3278,-0.3274,-0.3285,-0.3281,-0.3277,-0.3288,-0.3281,-0.3283,-0.3283,-0.3273,-0.3269,-0.3274,-0.3252,-0.3261,-0.3259,-0.3259,-0.3251,-0.3248,-0.3245,-0.3281,-0.3282,-0.3282,0,0,-0.3262,-0.3264,-0.3258,-0.3258,-0.3259,-0.3262,-0.326,-0.3263,-0.3264,-0.3257,-0.3264,-0.326,-0.3255,-0.3254,-0.3253,-0.3235,-0.324,-0.3234,-0.3222,-0.3214,-0.3211,-0.3209,-0.32,-0.3197,-0.3232,-0.3232,-0.3232,0,-0.3253,-0.3248,-0.3254,-0.3249,-0.3247,-0.3256,-0.3249,-0.3249,-0.3249,-0.3247,-0.3253,-0.3245,-0.3246,-0.3235,-0.323,-0.323,-0.3227,-0.3234,-0.3211,-0.3209,-0.3207,-0.3198,-0.3195,-0.3232,-0.3232,-0.3232,-0.3232,0,-0.3235,-0.3231,-0.3226,-0.3225,-0.3223,-0.3217,-0.3221,-0.3219,-0.3222,-0.3224,-0.3216,-0.3217,-0.3214,-0.3212,-0.3216,-0.3201,-0.3203,-0.321,-0.322,-0.3203,-0.3195,-0.3192,-0.323,-0.3231,-0.3231,-0.3231,0,0,-0.3214,-0.3215,-0.3213,-0.3211,-0.3212,-0.3208,-0.3202,-0.3198,-0.3194,-0.3194,-0.3187,-0.3181,-0.3186,-0.3185,-0.3189,-0.3182,-0.3164,-0.3189,-0.3189,-0.3183,-0.3145,-0.3139,-0.3135,-0.3168,-0.3168,-0.3167,-0.3144,0,-0.3198,-0.3187,-0.3191,-0.3179,-0.3174,-0.3181,-0.3175,-0.3174,-0.3175,-0.317,-0.3172,-0.3167,-0.3175,-0.3174,-0.3167,-0.3168,-0.3157,-0.317,-0.316,-0.316,-0.3159,-0.3132,-0.3126,-0.3105,-0.3142,-0.3141,-0.3141,0,-0.3178,-0.3176,-0.3163,-0.3162,-0.316,-0.3154,-0.315,-0.3146,-0.3144,-0.3145,-0.3142,-0.3147,-0.3138,-0.3148,-0.3136,-0.3144,-0.3141,-0.314,-0.3139,-0.3138,-0.3149,-0.3128,-0.3098,-0.3094,-0.3136,-0.3137,-0.3137,0,-0.3161,-0.3155,-0.3146,-0.3144,-0.3144,-0.3139,-0.3138,-0.3137,-0.3133,-0.3129,-0.3127,-0.3122,-0.3119,-0.3115,-0.3117,-0.3124,-0.3103,-0.3114,-0.3102,-0.3102,-0.3097,-0.3097,-0.3064,-0.3097,-0.3097,-0.3097,-0.3097,0,-0.3143,-0.3134,-0.3138,-0.3132,-0.3122,-0.3126,-0.3116,-0.3116,-0.3114,-0.3107,-0.3113,-0.3107,-0.3111,-0.3104,-0.3105,-0.3093,-0.3092,-0.3092,-0.3092,-0.309,-0.309,-0.3087,-0.3088,-0.3096,-0.3096,-0.3096,-0.3096,0,-0.3122,-0.3125,-0.3115,-0.3114,-0.3113,-0.3106,-0.3105,-0.3098,-0.3099,-0.309,-0.3088,-0.3089,-0.3081,-0.3083,-0.3075,-0.3076,-0.306,-0.3063,-0.306,-0.306,-0.3048,-0.3048,-0.3011,-0.3005,-0.3043,-0.3043,-0.3042,0,-0.311,-0.3103,-0.3101,-0.3097,-0.3096,-0.3089,-0.3085,-0.3088,-0.3084,-0.3079,-0.3073,-0.3066,-0.306,-0.3046,-0.3045,-0.3038,-0.304,-0.3027,-0.3039,-0.3036,-0.3037,-0.3037,-0.3035,-0.3025,-0.3024,-0.3024,-0.3024,0,-0.3087,-0.3088,-0.3082,-0.3076,-0.3071,-0.3067,-0.3063,-0.3059,-0.3061,-0.3056,-0.3047,-0.3042,-0.3032,-0.3024,-0.3017,-0.3015,-0.3019,-0.302,-0.3017,-0.3014,-0.3012,-0.3011,-0.3052,-0.3021,-0.3021,-0.3021,-0.3021,-0.3022,-0.3069,-0.3062,-0.3059,-0.3052,-0.3049,-0.3044,-0.3037,-0.3037,-0.303,-0.3022,-0.3024,-0.3014,-0.3009,-0.2999,-0.2996,-0.2987,-0.2992,-0.2987,-0.2986,-0.2984,-0.2982,-0.3014,-0.2986,-0.2986,-0.2986,-0.2986,-0.2986,0,-0.3045,-0.3042,-0.3036,-0.3029,-0.3022,-0.3027,-0.3022,-0.3016,-0.3007,-0.3002,-0.2996,-0.2984,-0.2975,-0.2973,-0.2964,-0.2957,-0.2958,-0.2954,-0.2954,-0.2953,-0.2979,-0.2982,-0.2953,-0.2953,-0.2953,-0.2953,-0.2953,-0.2953,-0.3031,-0.3019,-0.3019,-0.3005,-0.3002,-0.2992,-0.2989,-0.2983,-0.2979,-0.2966,-0.2959,-0.2957,-0.2953,-0.2943,-0.2934,-0.2933,-0.2929,-0.2924,-0.2923,-0.2948,-0.2951,-0.2955,-0.2957,-0.2923,-0.2923,-0.2897,-0.2897,-0.2897]},{"header":{"parameterUnit":"m.s-1","parameterCategory":1,"la1":30.2991,"la2":30.254,"lo1":-89.0895,"lo2":-89.0444,"dy":0.0017,"dx":0.0017,"nx":28,"ny":28,"refTime":"2024-04-05T03:00:00:Z","depth":0,"parameterNumber":3,"parameterNumberName":"V-component_of_WINDS"},"data":[0,0,0,0,0,0,0,0,0,0,0,0,0,0,0,0,0,0,0,0,0,0,0,0,0,0,0,0,0,0,0,0,0,0,0,0,0,0,0,0,0,0,0,0,0,0,0,0,0,0,0,0,0,0,0,0,0,0,-2.1423,-2.1424,0,-2.1449,-2.145,-2.145,-2.1459,-2.1459,-2.1459,-2.1459,-2.1484,-2.1485,-2.1485,0,0,0,0,0,0,0,0,0,0,0,0,0,-2.1379,-2.138,-2.1423,-2.1424,-2.1424,-2.1449,-2.145,-2.145,-2.1459,-2.1459,-2.1459,-2.1459,-2.1484,-2.1485,-2.1486,0,0,0,0,0,0,0,0,0,0,0,0,0,-2.1401,-2.138,-2.1423,-2.1432,-2.1433,-2.1449,-2.145,-2.145,-2.1459,-2.1459,-2.1459,-2.1459,-2.1483,-2.1485,-2.1486,-2.1495,0,0,-2.1489,-2.149,0,0,0,0,0,0,0,0,-2.14,-2.1402,-2.143,-2.1431,-2.1432,-2.1451,-2.1443,-2.1465,-2.1459,-2.1449,-2.1459,-2.1459,-2.1473,-2.1475,-2.148,-2.1496,-2.1497,-2.1489,-2.149,-2.149,-2.1491,0,0,0,0,0,0,0,-2.1398,-2.1401,-2.1433,-2.143,-2.1432,-2.1433,-2.1436,-2.1447,-2.1461,-2.145,-2.1451,-2.1454,-2.1474,-2.1479,-2.1481,-2.1498,-2.1489,-2.149,-2.1491,-2.1491,-2.1522,-2.1522,0,0,0,0,0,0,-2.1395,-2.14,-2.1433,-2.1434,-2.1415,-2.1434,-2.1437,-2.1445,-2.1461,-2.1464,-2.1454,-2.1454,-2.1477,-2.1479,-2.1482,-2.1493,-2.149,-2.1491,-2.1492,-2.1522,-2.1522,-2.1522,0,0,0,0,0,0,-2.1394,-2.1398,-2.1432,-2.1417,-2.1422,-2.1435,-2.1443,-2.1446,-2.1451,-2.1464,-2.1467,-2.1457,-2.1477,-2.148,-2.1492,-2.1494,-2.1492,-2.1493,-2.1521,-2.1522,-2.1522,-2.1517,0,0,0,0,0,0,-2.1393,-2.1398,-2.1402,-2.1417,-2.1422,-2.1442,-2.1444,-2.1446,-2.1453,-2.1454,-2.1468,-2.147,-2.1477,-2.149,-2.1493,-2.1496,-2.1494,-2.1521,-2.1521,-2.1522,-2.1517,-2.1517,-2.1517,0,0,0,0,0,-2.1392,-2.14,-2.1403,-2.1406,-2.1428,-2.1442,-2.1445,-2.1453,-2.1453,-2.1457,-2.1466,-2.147,-2.1493,-2.1491,-2.1494,-2.1498,-2.1521,-2.1521,-2.1522,-2.1517,-2.1517,-2.1517,0,0,0,0,0,0,-2.1384,-2.1402,-2.1405,-2.1419,-2.1429,-2.1444,-2.1449,-2.1453,-2.1463,-2.1463,-2.1473,-2.1476,-2.1487,-2.1493,-2.149,-2.1507,-2.1507,-2.1508,-2.1502,-2.1502,-2.1502,-2.1501,-2.1495,0,0,0,0,0,-2.1384,-2.1395,-2.1409,-2.142,-2.1424,-2.1436,-2.1442,-2.1448,-2.1458,-2.1463,-2.1472,-2.1481,-2.1491,-2.1497,-2.1507,-2.1517,-2.152,-2.1521,-2.1521,-2.1521,-2.1522,-2.1527,-2.1528,-2.1523,-2.1523,-2.1523,0,0,-2.1384,-2.1395,-2.1401,-2.1418,-2.1427,-2.1436,-2.1439,-2.145,-2.1456,-2.1464,-2.1475,-2.1482,-2.1493,-2.1504,-2.151,-2.151,-2.1524,-2.1522,-2.1521,-2.1522,-2.1527,-2.1528,-2.1528,-2.1523,-2.1523,-2.1523,0,0,-2.1389,-2.1399,-2.1408,-2.1417,-2.143,-2.1437,-2.1439,-2.1453,-2.1458,-2.1469,-2.1475,-2.1483,-2.1499,-2.1507,-2.1513,-2.1519,-2.1523,-2.1522,-2.1522,-2.1527,-2.1527,-2.1528,-2.1529,-2.153,-2.1523,-2.1523,-2.1523,0,-2.1388,-2.1403,-2.1413,-2.1422,-2.1429,-2.1436,-2.1445,-2.1453,-2.1468,-2.1472,-2.1472,-2.1492,-2.1501,-2.1513,-2.1514,-2.1519,-2.1521,-2.1521,-2.1527,-2.1527,-2.1528,-2.1529,-2.153,-2.1522,-2.1522,-2.1522,-2.1522,0,-2.14,-2.141,-2.1416,-2.1431,-2.1438,-2.1448,-2.1457,-2.1464,-2.1468,-2.1475,-2.1486,-2.1496,-2.1507,-2.151,-2.1515,-2.1523,-2.1523,-2.1525,-2.1526,-2.1528,-2.1529,-2.153,-2.1522,-2.1522,-2.1522,-2.1522,0,0,-2.1402,-2.1421,-2.1423,-2.1429,-2.1443,-2.1451,-2.146,-2.1471,-2.1476,-2.1486,-2.1493,-2.1506,-2.1508,-2.1514,-2.152,-2.1524,-2.1528,-2.1525,-2.1526,-2.1525,-2.1536,-2.1535,-2.1535,-2.153,-2.153,-2.153,-2.1535,0,-2.1409,-2.1426,-2.1434,-2.1447,-2.1456,-2.1462,-2.147,-2.1479,-2.1485,-2.1493,-2.15,-2.1509,-2.1511,-2.1514,-2.1519,-2.1526,-2.153,-2.1526,-2.1536,-2.1536,-2.1533,-2.1536,-2.1535,-2.1539,-2.1536,-2.1536,-2.1536,0,-2.1419,-2.1429,-2.1443,-2.1455,-2.1459,-2.1466,-2.1476,-2.1484,-2.1494,-2.1498,-2.1505,-2.151,-2.1518,-2.1518,-2.153,-2.1527,-2.1531,-2.1535,-2.1536,-2.1537,-2.1537,-2.1537,-2.1541,-2.1541,-2.1537,-2.1537,-2.1537,0,-2.1418,-2.1435,-2.1445,-2.145,-2.1465,-2.1469,-2.1476,-2.1485,-2.1491,-2.15,-2.1504,-2.1513,-2.1518,-2.1525,-2.1532,-2.1532,-2.1543,-2.1543,-2.1546,-2.1546,-2.1548,-2.1548,-2.1552,-2.1551,-2.1551,-2.1551,-2.1551,0,-2.1424,-2.1433,-2.1445,-2.1451,-2.146,-2.1469,-2.1477,-2.1484,-2.1492,-2.1499,-2.1505,-2.1511,-2.152,-2.1527,-2.1533,-2.1541,-2.1543,-2.1547,-2.1548,-2.1546,-2.1546,-2.1549,-2.1549,-2.1551,-2.1551,-2.1551,-2.1551,0,-2.1425,-2.1434,-2.1446,-2.1458,-2.1462,-2.1468,-2.1478,-2.1484,-2.149,-2.1499,-2.1501,-2.1511,-2.152,-2.1527,-2.1539,-2.1542,-2.1551,-2.1552,-2.1548,-2.1548,-2.155,-2.155,-2.1557,-2.1558,-2.1556,-2.1556,-2.1556,0,-2.1429,-2.1435,-2.1449,-2.1454,-2.146,-2.1468,-2.1474,-2.1483,-2.1488,-2.1499,-2.1504,-2.1513,-2.1521,-2.1534,-2.1542,-2.155,-2.1552,-2.1554,-2.1553,-2.1551,-2.1552,-2.1551,-2.1551,-2.1554,-2.1554,-2.1554,-2.1554,0,-2.1434,-2.1438,-2.1446,-2.1456,-2.1463,-2.1472,-2.148,-2.1484,-2.1493,-2.1499,-2.1508,-2.1514,-2.1526,-2.1534,-2.1544,-2.1549,-2.1553,-2.1554,-2.1555,-2.1553,-2.155,-2.1551,-2.1547,-2.1553,-2.1553,-2.1553,-2.1554,-2.1554,-2.1436,-2.1442,-2.1452,-2.1461,-2.1468,-2.1475,-2.1481,-2.1488,-2.1496,-2.1506,-2.151,-2.1519,-2.1528,-2.154,-2.1546,-2.1552,-2.1553,-2.1555,-2.1555,-2.1555,-2.1555,-2.1548,-2.1554,-2.1554,-2.1554,-2.1554,-2.1554,0,-2.1441,-2.1447,-2.1456,-2.1467,-2.1474,-2.1477,-2.1486,-2.1492,-2.15,-2.1507,-2.1515,-2.1525,-2.1533,-2.1541,-2.1549,-2.1553,-2.1555,-2.1555,-2.1555,-2.1556,-2.1554,-2.1552,-2.1553,-2.1553,-2.1553,-2.1553,-2.1553,-2.1553,-2.1444,-2.1454,-2.1459,-2.1471,-2.1478,-2.1487,-2.1492,-2.1498,-2.1504,-2.1515,-2.1522,-2.1527,-2.1535,-2.1544,-2.1551,-2.1553,-2.1556,-2.1556,-2.1558,-2.1556,-2.1556,-2.1556,-2.1554,-2.1556,-2.1556,-2.1559,-2.1559,-2.156]}]]